Wind_Speed
11 8 6 6 6 6 6 6 7 7 7 7 8 7 7 7 7 6 6 4 4 3 3 2 2 2 2 1 1 2 3 3 3 4 4 5 6 7 7 7 7 7 8
10 8 6 5 5 5 5 5 6 6 6 6 6 6 5 5 6 6 6 5 4 4 3 2 1 1 1 2 2 2 3 4 4 4 4 4 6 6 7 7 7 7 7
10 9 7 6 6 5 5 5 5 5 5 4 4 5 5 4 4 4 5 5 4 4 4 3 2 2 2 2 3 3 3 4 4 5 5 5 6 6 6 5 6 6 7
11 9 7 6 6 5 5 5 5 5 4 4 3 3 3 4 3 3 4 4 4 3 3 3 3 3 3 4 3 4 4 5 6 6 6 6 6 6 6 6 7 8 8
11 10 8 7 6 6 6 5 5 5 4 4 3 2 2 2 3 3 4 4 4 3 4 4 4 4 4 4 4 5 5 6 7 7 7 7 7 7 7 8 9 10 10
12 11 9 8 7 7 7 7 6 6 5 4 4 3 3 3 3 3 3 4 4 4 5 5 5 5 5 5 5 6 6 7 7 8 8 8 9 9 9 9 10 11 11
12 11 10 9 8 9 9 8 7 7 7 6 5 4 4 4 4 4 4 4 4 5 5 6 6 6 7 7 7 7 8 9 9 9 9 10 10 10 11 12 12 12 13
12 12 11 11 12 11 10 10 9 9 9 8 7 6 6 7 6 6 6 6 6 6 7 7 7 7 8 8 8 8 9 9 10 10 10 11 11 12 13 13 13 13 13
13 13 13 14 14 13 11 11 11 10 10 11 10 9 8 9 9 9 9 9 9 9 9 9 9 9 9 9 9 9 10 11 11 11 12 12 13 14 14 15 15 15 14
14 14 14 15 14 13 12 12 12 12 12 13 13 12 12 11 11 11 12 11 11 11 11 11 11 11 11 11 11 12 12 12 13 13 13 14 15 16 16 16 17 17 16
16 16 16 16 17 16 15 14 15 15 15 16 16 16 16 16 14 13 14 14 14 14 14 13 13 13 13 13 14 14 14 14 14 14 15 15 16 17 18 18 19 19 19
19 18 19 19 19 19 18 17 17 17 18 18 18 18 18 18 18 17 16 15 15 16 16 16 15 15 15 15 16 16 16 16 16 16 16 17 18 18 19 19 20 20 20
22 21 21 21 21 21 21 20 20 20 20 21 21 21 20 20 19 19 18 18 18 18 18 18 18 18 18 18 18 17 18 18 18 18 19 19 20 21 21 22 22 22 22
22 23 23 23 24 23 23 23 23 22 22 22 22 22 23 22 22 22 21 21 20 20 20 20 20 20 20 20 20 19 19 19 20 20 21 22 22 23 23 23 24 24 24
25 25 25 24 25 25 25 25 25 25 25 24 24 24 25 25 25 25 24 24 23 23 23 23 23 23 22 22 22 21 21 22 22 22 23 24 24 25 25 26 26 26 26
27 27 26 26 27 26 27 27 27 26 27 27 27 26 26 27 26 26 26 26 26 26 25 26 26 24 24 24 24 24 24 24 24 25 25 26 26 27 27 28 29 28 28
29 28 27 28 28 29 28 28 27 28 28 28 28 29 28 29 28 28 28 28 28 28 28 28 27 26 26 26 26 26 26 27 27 26 26 27 28 29 29 30 31 30 30
30 29 29 29 29 29 30 30 29 30 30 29 29 30 30 29 29 29 30 29 29 30 30 29 28 27 27 27 27 28 29 28 29 29 28 29 30 30 30 31 31 31 31
30 31 31 30 30 31 32 32 32 31 31 31 30 31 30 29 29 30 30 30 31 31 32 31 29 29 29 29 30 31 30 29 30 30 30 30 31 31 31 31 30 30 30
32 32 32 32 32 32 32 33 32 31 31 32 32 32 32 31 30 31 31 31 32 33 33 33 31 31 31 32 32 31 31 31 31 31 31 32 32 32 32 32 31 30 30
32 33 33 32 32 32 32 32 32 31 31 32 33 33 32 32 32 32 32 32 33 33 34 33 32 33 33 33 32 32 32 32 32 33 32 33 33 33 33 32 31 31 30
34 34 33 33 33 33 33 32 32 31 32 32 32 32 32 32 31 32 32 33 32 32 32 32 32 33 33 33 33 34 33 33 34 34 34 34 34 34 34 33 32 31 30
34 34 34 35 34 34 34 34 32 32 32 32 32 31 32 32 31 32 32 32 32 32 32 32 33 34 34 34 34 34 33 33 33 33 33 34 34 34 34 33 32 31 30
35 35 35 36 36 35 35 34 34 33 32 32 32 32 32 32 33 33 33 33 33 32 32 33 33 34 34 34 33 34 34 35 35 34 34 33 33 33 32 31 30 29 29
34 35 35 35 36 35 34 35 34 33 32 32 32 32 32 32 33 33 33 33 33 33 33 33 33 33 33 33 34 34 34 34 35 34 33 32 32 30 29 28 28 28 29
35 35 34 34 34 34 33 33 33 33 32 32 32 32 32 32 32 32 32 32 32 32 32 32 31 31 32 32 32 32 33 33 32 31 30 29 29 28 27 28 28 28 29
Wind_Direction
349 344 352 360 7 17 21 25 26 28 35 41 44 51 60 62 62 62 60 69 72 72 75 69 65 62 44 18 333 302 302 302 306 300 292 287 286 279 280 281 290 287 278
343 343 345 354 340 1 6 12 14 17 24 34 39 43 50 58 65 65 61 62 60 55 48 41 16 2 343 325 310 299 300 294 300 306 299 300 306 297 286 291 293 295 291
339 343 346 348 348 347 346 352 357 356 2 18 32 41 42 40 50 53 54 50 44 42 36 36 19 7 0 349 343 324 303 307 308 304 300 299 307 308 296 300 299 296 303
330 332 329 329 331 332 334 336 334 333 338 344 359 14 25 28 32 32 25 23 19 16 10 7 357 349 331 329 337 338 336 334 330 333 326 320 314 307 296 294 291 293 295
322 320 318 315 314 312 314 322 325 319 319 323 331 344 343 349 360 6 3 356 350 351 352 1 355 336 327 329 328 328 320 324 321 318 319 315 310 302 298 298 296 294 293
318 320 313 310 302 297 300 310 314 309 305 303 307 315 311 314 321 327 337 340 335 331 336 339 338 327 318 320 321 322 316 315 316 314 312 310 305 303 301 298 295 293 292
312 317 312 306 295 285 288 294 295 296 297 292 288 296 295 289 295 298 306 309 306 307 313 315 320 319 312 309 308 309 306 309 312 311 310 308 304 301 298 298 298 296 294
302 298 297 295 292 283 281 285 288 287 286 284 274 281 288 285 283 286 290 292 294 297 301 304 305 308 312 310 304 300 301 304 306 304 302 302 303 300 299 299 301 299 296
296 296 298 301 299 290 287 287 284 279 278 282 280 280 277 278 278 281 285 286 287 288 290 295 299 302 305 309 308 303 300 300 300 298 297 298 300 298 299 301 299 297 295
293 295 297 297 298 295 291 289 281 276 277 279 279 281 279 277 280 277 280 282 281 282 282 283 291 296 298 301 302 297 295 298 299 296 294 296 298 297 296 297 297 294 292
287 286 288 289 289 290 290 286 283 278 277 278 278 277 282 279 275 275 274 275 275 278 280 280 285 289 291 293 294 295 292 292 294 296 297 298 296 295 295 295 294 292 290
284 283 287 286 286 287 287 285 283 279 276 276 276 276 277 277 273 272 272 272 274 277 279 278 280 283 286 288 289 291 292 293 293 294 297 298 298 298 297 297 297 294 291
282 281 283 282 284 285 283 281 279 279 276 274 275 275 275 275 274 274 274 274 274 275 276 276 277 280 283 285 286 287 289 289 289 291 293 294 295 296 295 295 295 294 291
280 280 280 279 279 278 278 277 278 278 277 274 274 273 273 271 272 273 272 271 272 273 274 276 278 280 281 282 283 283 285 286 288 289 291 291 292 293 293 292 292 292 291
274 277 276 276 276 273 273 274 276 276 278 276 273 272 272 272 271 269 269 269 270 270 272 274 276 278 278 279 279 280 282 284 286 286 287 288 290 291 290 290 290 291 290
275 277 276 276 276 275 274 273 274 277 279 279 276 273 272 271 271 268 268 268 269 271 274 272 273 274 275 276 277 279 282 285 286 285 285 287 289 290 290 290 289 289 289
275 276 277 279 279 278 276 273 275 276 278 277 274 274 273 271 270 269 270 271 270 271 271 273 273 272 274 276 277 279 281 283 285 286 286 288 288 289 290 291 291 290 288
272 274 276 278 279 279 278 277 277 278 277 276 273 273 273 271 269 267 270 269 269 269 270 270 271 273 275 276 276 279 281 283 285 286 288 290 290 293 292 291 290 288 287
273 275 276 277 278 278 278 277 278 276 274 274 272 271 271 271 269 268 268 268 269 269 270 270 272 272 274 276 276 278 280 284 287 288 288 290 290 292 292 291 289 287 287
273 275 277 278 278 278 277 277 277 275 273 272 271 272 269 269 269 268 269 269 268 269 270 270 272 272 273 275 275 276 280 283 285 287 288 288 289 290 290 290 288 286 286
274 277 278 278 278 278 278 277 276 275 274 273 272 272 269 267 268 269 269 270 271 270 270 269 271 274 275 274 274 276 278 281 284 286 287 287 287 288 288 288 287 285 284
274 276 277 277 278 279 278 276 275 274 274 273 272 271 269 269 270 269 270 271 271 272 274 272 274 276 276 276 276 277 278 281 283 284 285 285 285 286 286 285 283 282 282
274 275 276 277 277 279 279 278 276 274 272 272 271 270 269 269 270 271 272 272 273 274 275 275 275 274 275 276 276 278 280 282 284 286 286 285 284 284 282 281 280 281 280
275 276 277 278 278 277 277 278 277 274 271 271 270 269 269 269 270 271 271 272 273 275 274 274 275 275 275 275 276 278 280 282 284 285 286 288 288 283 282 281 280 281 280
276 277 277 278 278 277 277 278 277 275 272 271 270 269 269 269 269 271 271 271 272 273 274 274 275 276 275 274 275 277 279 281 283 284 286 286 287 287 286 283 282 282 282
277 278 279 279 279 279 278 277 276 274 273 272 271 270 271 271 271 271 271 271 271 272 274 274 275 275 274 273 273 276 278 280 282 283 283 284 285 286 284 284 284 284 282
Height
5919 5917 5916 5916 5914 5914 5914 5913 5912 5911 5910 5909 5908 5907 5907 5906 5906 5905 5905 5905 5904 5904 5904 5904 5904 5904 5903 5903 5903 5902 5902 5901 5901 5900 5900 5899 5898 5898 5897 5896 5895 5894 5893
5918 5917 5916 5915 5913 5913 5913 5913 5912 5911 5910 5909 5908 5908 5907 5906 5906 5906 5905 5905 5905 5904 5904 5904 5903 5903 5903 5902 5901 5901 5900 5900 5900 5899 5899 5898 5897 5896 5895 5895 5894 5893 5892
5917 5916 5916 5915 5914 5913 5913 5912 5911 5911 5910 5909 5908 5908 5907 5906 5906 5906 5905 5905 5904 5904 5904 5903 5903 5902 5901 5901 5900 5900 5899 5899 5898 5898 5897 5897 5896 5894 5894 5893 5892 5891 5890
5916 5915 5915 5914 5914 5913 5912 5911 5911 5910 5909 5909 5908 5907 5907 5906 5906 5906 5905 5905 5904 5903 5903 5902 5901 5901 5900 5900 5899 5899 5898 5897 5897 5896 5896 5895 5894 5893 5892 5891 5890 5889 5888
5914 5913 5913 5913 5912 5912 5911 5910 5910 5909 5908 5908 5907 5907 5906 5906 5906 5905 5905 5904 5904 5903 5902 5901 5900 5899 5899 5899 5898 5897 5897 5896 5895 5894 5894 5893 5892 5891 5890 5889 5888 5887 5885
5911 5910 5910 5910 5910 5910 5910 5909 5909 5908 5907 5907 5906 5906 5905 5905 5905 5904 5903 5903 5903 5902 5901 5900 5899 5898 5898 5897 5897 5896 5895 5894 5893 5893 5892 5891 5890 5889 5888 5887 5885 5884 5883
5908 5907 5908 5908 5908 5907 5907 5907 5906 5906 5906 5905 5905 5905 5904 5903 5903 5903 5902 5902 5901 5901 5900 5899 5898 5897 5896 5896 5895 5894 5893 5892 5891 5890 5889 5888 5887 5886 5885 5883 5882 5881 5880
5907 5905 5905 5905 5905 5904 5904 5904 5904 5904 5904 5903 5903 5902 5902 5901 5901 5901 5900 5900 5899 5899 5898 5898 5897 5896 5895 5893 5892 5892 5891 5890 5889 5887 5886 5885 5884 5883 5881 5880 5879 5877 5876
5903 5902 5902 5902 5902 5901 5901 5901 5901 5901 5901 5900 5899 5899 5899 5899 5899 5898 5898 5898 5897 5896 5896 5895 5894 5893 5892 5891 5890 5889 5888 5886 5885 5884 5883 5882 5880 5879 5877 5876 5874 5874 5872
5900 5899 5899 5899 5899 5898 5898 5898 5897 5897 5897 5897 5897 5896 5896 5895 5895 5895 5895 5894 5894 5893 5892 5892 5891 5890 5889 5888 5886 5885 5884 5883 5881 5880 5879 5878 5876 5874 5873 5871 5870 5868 5867
5896 5896 5896 5896 5895 5895 5894 5893 5893 5893 5893 5893 5893 5893 5892 5891 5890 5890 5890 5890 5890 5889 5888 5888 5887 5886 5885 5884 5883 5881 5880 5879 5878 5876 5875 5873 5872 5870 5868 5866 5865 5863 5862
5891 5890 5891 5891 5891 5890 5889 5889 5889 5889 5889 5888 5888 5887 5887 5886 5885 5884 5884 5884 5884 5884 5884 5883 5882 5882 5881 5879 5878 5877 5876 5874 5873 5872 5870 5869 5867 5865 5863 5861 5859 5857 5856
5884 5884 5885 5885 5885 5885 5884 5884 5883 5883 5883 5883 5882 5882 5881 5881 5880 5879 5879 5879 5879 5879 5878 5878 5877 5876 5875 5874 5873 5872 5871 5869 5868 5867 5865 5863 5862 5860 5858 5856 5853 5851 5849
5878 5879 5878 5878 5878 5878 5878 5877 5877 5876 5876 5876 5876 5875 5874 5874 5874 5873 5873 5873 5873 5873 5872 5872 5871 5870 5870 5868 5867 5866 5865 5863 5862 5861 5859 5857 5855 5853 5851 5849 5847 5845 5842
5872 5872 5872 5871 5871 5870 5870 5870 5870 5869 5868 5868 5868 5868 5867 5866 5866 5866 5866 5866 5866 5866 5865 5865 5864 5864 5863 5862 5861 5860 5858 5857 5856 5854 5852 5850 5848 5846 5843 5841 5839 5837 5834
5864 5864 5864 5864 5863 5862 5862 5862 5862 5862 5861 5860 5859 5859 5859 5859 5858 5858 5857 5858 5858 5858 5858 5857 5856 5856 5856 5855 5854 5853 5852 5850 5849 5847 5845 5842 5840 5838 5835 5833 5830 5828 5826
5856 5856 5856 5856 5855 5854 5853 5853 5853 5853 5852 5851 5851 5850 5850 5850 5850 5850 5849 5850 5850 5850 5850 5849 5848 5848 5848 5847 5847 5845 5844 5842 5841 5839 5836 5834 5832 5830 5827 5824 5822 5820 5817
5849 5848 5848 5847 5847 5846 5845 5845 5844 5844 5843 5842 5841 5841 5840 5840 5840 5841 5841 5841 5841 5841 5841 5840 5840 5840 5840 5839 5838 5837 5836 5834 5832 5830 5828 5826 5823 5821 5818 5815 5813 5811 5808
5840 5839 5838 5838 5837 5837 5836 5835 5835 5835 5834 5833 5833 5832 5831 5831 5831 5832 5832 5832 5832 5832 5832 5832 5832 5832 5831 5831 5830 5828 5827 5825 5823 5821 5819 5817 5815 5812 5809 5806 5804 5802 5800
5830 5829 5829 5828 5828 5827 5826 5826 5825 5824 5824 5824 5823 5823 5823 5823 5823 5823 5823 5823 5823 5822 5822 5822 5822 5822 5822 5821 5820 5819 5818 5816 5815 5812 5810 5808 5805 5803 5800 5797 5795 5793 5791
5821 5821 5820 5819 5818 5817 5816 5816 5815 5815 5814 5814 5814 5813 5813 5813 5814 5814 5814 5814 5813 5812 5812 5812 5812 5812 5811 5810 5810 5809 5808 5807 5805 5803 5801 5798 5796 5793 5791 5788 5786 5784 5782
5812 5812 5811 5809 5808 5807 5807 5806 5806 5805 5805 5805 5805 5804 5804 5804 5804 5804 5804 5804 5804 5803 5802 5801 5802 5802 5802 5801 5800 5799 5798 5797 5795 5793 5791 5788 5786 5784 5781 5779 5776 5775 5773
5803 5802 5801 5800 5798 5797 5796 5796 5796 5795 5795 5795 5795 5795 5795 5795 5794 5795 5795 5794 5794 5794 5794 5793 5793 5793 5793 5792 5791 5789 5788 5786 5785 5783 5781 5778 5776 5773 5771 5768 5766 5765 5764
5794 5793 5792 5790 5788 5787 5786 5785 5785 5785 5785 5785 5785 5785 5785 5785 5785 5785 5785 5785 5785 5785 5784 5784 5784 5783 5782 5781 5780 5779 5777 5776 5775 5773 5770 5768 5766 5763 5762 5760 5758 5756 5755
5783 5782 5781 5780 5778 5776 5775 5775 5774 5774 5775 5775 5775 5775 5776 5776 5776 5776 5775 5775 5775 5775 5775 5774 5774 5773 5772 5771 5769 5768 5767 5766 5764 5763 5761 5759 5757 5755 5753 5751 5750 5748 5746
5773 5772 5770 5769 5767 5766 5765 5765 5764 5764 5764 5765 5765 5765 5766 5765 5765 5765 5765 5765 5765 5765 5764 5764 5764 5763 5762 5761 5759 5758 5757 5756 5754 5753 5751 5750 5748 5747 5745 5743 5741 5739 5738